Flag for Brazil Weather past 2 weeks in Brasilia, Distrito Federal, Brazil

Now
70 °F

Passing clouds.


Feels Like: 70 °F
Forecast: 68 / 80 °F
Wind: No wind

Location: Brasilia Aeroporto


UV Index: 5 (Moderate)

Visibility: N/A


Pressure: 30.07 "Hg

Humidity: 73%

Dew point: 61 °F

Location of BrasiliaLocation

Historic Weather in Brasilia

°F

Brasilia temperature yesterday

Maximum temperature yesterday: 88 °F (at 3:00 PM)
Minimum temperature yesterday: 66 °F (at 3:00 AM)
Average temperature yesterday: 77 °F

Past Weeks' High & Low Weather Summary

 TemperatureHumidityPressure
High88 °F (Apr 20, 3:00 PM)100% (Apr 10, 6:00 PM)30.18 "Hg (Apr 10, 6:00 PM)
Low37 °F (Apr 10, 6:00 PM)31% (Apr 19, 5:00 PM)29.95 "Hg (Apr 9, 4:00 PM)
Average76 °F68%30.08 "Hg
* Reported Apr 6 5:00 AM — Apr 21 5:00 AM, Brasilia, Weather by CustomWeather, © 2014

Note: Actual official high and low records may vary slightly from our data, if they occured in-between our weather recording intervals... More about our weather records

Advertising

Historic Weather Conditions — Data for Previous 24 hours

 ConditionsComfort  
Time TempWeatherWind HumidityBarometerVisibility
5:00 AM
Apr 21
70 °FPassing clouds.No wind73%30.07 "HgN/A
4:00 AM70 °FPassing clouds.2 mph73%30.07 "HgN/A
3:00 AM70 °FPassing clouds.No wind73%30.07 "HgN/A
2:00 AM70 °FClear.2 mph73%30.07 "Hg10 mi
1:00 AM73 °FClear.No wind69%30.09 "Hg10 mi
12:00 AM75 °FClear.3 mph65%30.09 "Hg10 mi
11:00 PM
Apr 20
75 °FPassing clouds.1 mph65%30.09 "HgN/A
10:00 PM77 °FPassing clouds.3 mph61%30.09 "HgN/A
9:00 PM77 °FPassing clouds.5 mph61%30.07 "HgN/A
8:00 PM81 °FPassing clouds.3 mph54%30.07 "HgN/A
7:00 PM82 °FPassing clouds.1 mph55%30.04 "HgN/A
6:00 PM84 °FPassing clouds.3 mph48%30.04 "HgN/A
5:00 PM86 °FScattered clouds.7 mph43%30.04 "HgN/A
4:00 PM88 °FScattered clouds.5 mph38%30.04 "HgN/A
3:00 PM88 °FScattered clouds.3 mph38%30.07 "HgN/A
2:00 PM86 °FPartly sunny.6 mph43%30.07 "HgN/A
1:00 PM84 °FPartly sunny.7 mph48%30.09 "HgN/A
12:00 PM84 °FPartly sunny.10 mph48%30.12 "HgN/A
11:00 AM82 °FScattered clouds.12 mph51%30.18 "HgN/A
10:00 AM82 °FPassing clouds.9 mph51%30.18 "HgN/A
9:00 AM79 °FSunny.5 mph58%30.18 "Hg10 mi
8:00 AM73 °FSunny.No wind69%30.18 "Hg10 mi
7:00 AM68 °FSunny.1 mph73%30.15 "Hg10 mi
6:00 AM68 °FClear.3 mph73%30.12 "Hg10 mi
Weather by CustomWeather, © 2014

See weather overview